EW8735 Weather Reports


Display with metric or nautical units.
time (UTC)temp
F
wind
direction
speed
MPH
gust
MPH
rain 1hr
in
rain 24hr
in
rain mn
in
humidity
%
barometer
mb
20260505220006 80 37 0.0 0.0 0.00 0.00 0.00 36 1007.3
20260505214505 80 37 0.0 0.0 0.00 0.00 0.00 35 1007.4
20260505213004 80 65 0.0 0.0 0.00 0.00 0.00 37 1007.5
20260505211634 79 64 0.0 0.0 0.00 0.00 0.00 39 1007.6
20260505210100 79 66 0.0 0.0 0.00 0.00 0.00 37 1007.6
20260505204559 78 66 0.0 0.0 0.00 0.00 0.00 40 1007.8
20260505203119 77 66 0.0 0.0 0.00 0.00 0.00 44 1007.8
20260505201552 75 66 0.0 0.0 0.00 0.00 0.00 45 1007.9
20260505200052 74 66 0.0 0.0 0.00 0.00 0.00 47 1008.0
20260505194552 76 69 0.0 0.0 0.00 0.00 0.00 42 1008.0
20260505193049 76 58 0.0 0.0 0.00 0.00 0.00 46 1008.1
20260505191551 74 59 0.0 0.0 0.00 0.00 0.00 47 1008.1
20260505190045 74 41 0.0 0.0 0.00 0.00 0.00 47 1008.2
20260505184548 74 41 0.0 0.0 0.00 0.00 0.00 45 1008.3
20260505183045 73 41 0.0 0.0 0.00 0.00 0.00 51 1008.2
20260505181537 73 59 0.0 0.0 0.00 0.00 0.00 51 1008.2
20260505180036 72 62 0.0 0.0 0.00 0.00 0.00 50 1008.1
20260505174534 72 62 0.0 0.0 0.00 0.00 0.00 51 1008.2
20260505173033 71 60 0.0 0.0 0.00 0.00 0.00 52 1008.2
20260505171529 71 57 0.0 0.0 0.00 0.00 0.00 54 1008.2
20260505170035 71 122 0.0 0.0 0.00 0.00 0.00 52 1008.1
20260505164528 71 123 0.0 0.0 0.00 0.00 0.00 51 1008.0
20260505163026 70 123 0.0 0.0 0.00 0.00 0.00 53 1008.0
20260505161517 69 122 0.0 0.0 0.00 0.00 0.00 58 1008.0
20260505153010 66 45 0.0 0.0 0.00 0.00 0.00 61 1007.9
20260505151504 64 46 0.0 0.0 0.00 0.00 0.00 65 1007.8
20260505150104 62 35 0.0 0.0 0.00 0.00 0.00 67 1007.7
20260505124535 53 46 0.0 0.0 0.00 0.00 0.00 78 1006.3
20260505123034 53 47 0.0 0.0 0.00 0.00 0.00 78 1006.2
20260505121535 54 47 0.0 0.0 0.00 0.00 0.00 76 1006.1
20260505120027 55 46 0.0 0.0 0.00 0.00 0.00 74 1005.8
20260505114524 56 46 0.0 0.0 0.00 0.00 0.00 74 1005.7
20260505113033 56 47 0.0 0.0 0.00 0.00 0.00 74 1005.6
20260505101521 57 47 0.0 0.0 0.00 0.00 0.00 73 1005.1
20260505100011 57 47 0.0 0.0 0.00 0.00 0.00 73 1005.0
20260505094508 58 47 0.0 0.0 0.00 0.00 0.00 70 1004.9
20260505093006 58 46 0.0 0.0 0.00 0.00 0.00 69 1004.8
20260505091500 58 45 0.0 0.0 0.00 0.00 0.00 70 1004.8
20260505090101 58 45 0.0 0.0 0.00 0.00 0.00 70 1004.8
20260505084603 57 45 0.0 0.0 0.00 0.00 0.00 69 1004.8
20260505083104 57 45 0.0 0.0 0.00 0.00 0.00 69 1004.7
20260505081548 56 45 0.0 0.0 0.00 0.00 0.00 69 1004.7
20260505080045 56 45 0.0 0.0 0.00 0.00 0.00 69 1004.7
20260505074542 55 45 0.0 0.0 0.00 0.00 0.00 70 1004.7
20260505073041 55 45 0.0 0.0 0.00 0.00 0.00 72 1004.6
20260505071538 54 45 0.0 0.0 0.00 0.00 0.00 74 1004.4
20260505070043 55 45 0.0 0.0 0.00 0.00 0.00 71 1004.3
20260505064534 56 45 0.0 0.0 0.00 0.00 0.00 69 1004.2
20260505063034 57 45 0.0 0.0 0.00 0.00 0.00 69 1003.7
20260505061553 58 45 0.0 0.0 0.00 0.00 0.00 68 1004.0
20260505060035 57 45 0.0 0.0 0.00 0.00 0.00 68 1003.6
20260505054543 57 45 0.0 0.0 0.00 0.00 0.00 68 1003.5
20260505053032 57 45 0.0 0.0 0.00 0.00 0.00 68 1003.4
20260505051532 58 45 0.0 0.0 0.00 0.00 0.00 65 1003.3
20260505041531 63 45 0.0 0.0 0.00 0.00 0.00 55 1003.0
20260505040039 63 45 0.0 0.0 0.00 0.00 0.00 54 1002.8
20260505034537 63 45 0.0 0.0 0.00 0.00 0.00 55 1002.7
20260505033029 63 45 0.0 0.0 0.00 0.00 0.00 57 1002.6
20260505031530 65 45 0.0 0.0 0.00 0.00 0.00 56 1002.5
20260505030029 68 45 0.0 0.0 0.00 0.00 0.00 54 1002.4
20260505024528 73 48 0.0 0.0 0.00 0.00 0.00 46 1002.4
20260505023026 76 46 0.0 0.0 0.00 0.00 0.00 37 1002.4
20260505021526 77 46 0.0 0.0 0.00 0.00 0.00 35 1002.5
20260505020035 77 48 0.0 0.0 0.00 0.00 0.00 35 1002.6
20260505014524 78 48 0.0 0.0 0.00 0.00 0.00 33 1002.6
20260505013025 79 45 0.0 0.0 0.00 0.00 0.00 31 1002.8
20260505011521 80 42 0.0 0.0 0.00 0.00 0.00 30 1002.9
20260505010021 80 28 0.0 0.0 0.00 0.00 0.00 28 1003.1
20260505004521 81 28 0.0 0.0 0.00 0.00 0.00 27 1003.0
20260505003019 82 27 0.0 0.0 0.00 0.00 0.00 26 1003.1
20260505001519 82 339 0.0 0.0 0.00 0.00 0.00 26 1003.1
20260505000032 83 359 0.0 0.0 0.00 0.00 0.00 25 1003.1
20260504234518 83 341 0.0 0.0 0.00 0.00 0.00 25 1003.2
20260504233016 83 342 0.0 0.0 0.00 0.00 0.00 26 1003.2
20260504231514 83 342 0.0 0.0 0.00 0.00 0.00 25 1003.3
20260504230014 83 359 0.0 0.0 0.00 0.00 0.00 28 1003.4
20260504224512 83 337 0.0 0.0 0.00 0.00 0.00 30 1003.5
20260504223010 83 359 0.0 0.0 0.00 0.00 0.00 30 1003.6
20260504221508 82 359 0.0 0.0 0.00 0.00 0.00 28 1003.9